Location: Unspecified
(0.0000°N, 0.0000°E)
Time: 21:45:39
(UTC+00:00)

Tiros 1 - Pass Details

Date: 25 October 2021
Orbit: 630 x 664 km, 48.4° (Epoch: 04 December)

Event Time Altitude Azimuth Distance (km) Brightness Sun altitude
Rises 18:03:41 0° 328° (NNW) 2,906 10.8 -4.8°
Reaches altitude 10° 18:06:01 10° 332° (NNW) 1,998 9.9 -5.4°
Maximum altitude 18:10:33 59° 51° (NE) 722 7.1 -6.5°
Drops below altitude 10° 18:15:05 10° 131° (SE) 2,000 9.3 -7.6°
Sets 18:17:25 0° 135° (SE) 2,910 10.2 -8.2°
